Tracking 29747 objects as of 10-Oct-2024
HD Live streaming from Space Station
objects crossing your sky now

DELTA 1 DEB

Track DELTA 1 DEB now!
10-day predictions


NORAD ID: 21444
Int'l Code: 1975-052EC
Perigee: 1,086.1 km
Apogee: 1,496.1 km
Inclination: 99.7 °
Period: 111.2 minutes
Semi major axis: 7662 km
RCS: 0.0097 m2 (small)
Launch date: June 12, 1975
Source: United States (US)
Launch site: AIR FORCE WESTERN TEST RANGE (AFWTR)

Note: This is SATELLITE DEBRIS
Your satellite tracking list
Your tracking list is empty




NASA's NSSDC Master Catalog

Two Line Element Set (TLE):
1 21444U 75052EC  24283.43441552  .00001143  00000-0  36067-2 0  9994
2 21444  99.6503 257.6587 0267570   5.6992 148.1684 12.94434363577209
Source of the keplerian elements: AFSPC